EWG9983 EDDL-HEGN

Flight info

Callsign EWG9983
Flight time N/A
Altitude 35000
Route DODEN7Z/05R DODEN Y853 BOMBI DCT DETEV DCT DINKU/N0419F330 M867 XERUM DCT BAVAX DCT RADIZ/N0426F350 DCT MODRO DCT DARZA DCT PINDO UL607 ATV DCT GENDO UL607 GIVIS/N0437F370 UL607 PAXIS Y707 OBRAN L321 REXUM M872 HGD
Aircraft A320/M-SDE3FGHIRWY/LB1

Departure

Time 2026-02-18 14:19
Airport Düsseldorf Airport (EDDL)

Arrival

Time N/A
Airport Hurghada International Airport (HEGN)
Time Latitude Longitude Altitude Speed Heading
2026-02-18 13:57 51.28108 6.76546 131 ft 0 kts 96°
2026-02-18 14:10 51.28109 6.76537 130 ft 2 kts 96°
2026-02-18 14:11 51.28111 6.76506 130 ft 3 kts 91°
2026-02-18 14:11 51.28111 6.76476 130 ft 2 kts 86°
2026-02-18 14:11 51.28109 6.76451 125 ft 3 kts 68°
2026-02-18 14:11 51.28101 6.76430 126 ft 3 kts 14°
2026-02-18 14:12 51.28084 6.76431 128 ft 3 kts 335°
2026-02-18 14:12 51.28067 6.76446 130 ft 2 kts 327°
2026-02-18 14:12 51.28064 6.76449 125 ft 0 kts 327°
2026-02-18 14:14 51.28066 6.76447 130 ft 3 kts 327°
2026-02-18 14:14 51.28098 6.76413 129 ft 5 kts 325°
2026-02-18 14:15 51.28130 6.76356 129 ft 7 kts 302°
2026-02-18 14:15 51.28205 6.76209 127 ft 9 kts 284°
2026-02-18 14:15 51.28182 6.76128 127 ft 9 kts 231°
2026-02-18 14:16 51.28049 6.75852 128 ft 15 kts 233°
2026-02-18 14:16 51.27991 6.75729 129 ft 13 kts 233°
2026-02-18 14:16 51.27930 6.75601 129 ft 17 kts 232°
2026-02-18 14:17 51.27847 6.75353 122 ft 9 kts 304°
2026-02-18 14:17 51.27902 6.75301 124 ft 9 kts 333°
2026-02-18 14:17 51.27963 6.75252 120 ft 9 kts 335°
2026-02-18 14:18 51.28002 6.75288 121 ft 9 kts 54°
2026-02-18 14:18 51.28155 6.75611 126 ft 71 kts 52°
2026-02-18 14:18 51.28586 6.76515 127 ft 131 kts 52°
2026-02-18 14:18 51.29208 6.77819 394 ft 150 kts 57°
2026-02-18 14:19 51.29825 6.79141 1136 ft 148 kts 57°
2026-02-18 14:19 51.30459 6.80485 1620 ft 158 kts 57°
2026-02-18 14:19 51.31167 6.81993 1847 ft 180 kts 57°
2026-02-18 14:19 51.31971 6.83696 2099 ft 202 kts 56°
2026-02-18 14:20 51.32866 6.85583 2354 ft 225 kts 56°
2026-02-18 14:20 51.33848 6.87683 2776 ft 243 kts 57°
2026-02-18 14:20 51.34707 6.89995 3471 ft 247 kts 71°
2026-02-18 14:20 51.35114 6.92661 4241 ft 249 kts 88°
2026-02-18 14:21 51.34736 6.98197 5787 ft 254 kts 101°
2026-02-18 14:21 51.34452 7.01006 6557 ft 257 kts 101°
2026-02-18 14:21 51.34169 7.03853 7273 ft 261 kts 100°
2026-02-18 14:22 51.33881 7.06747 8000 ft 265 kts 100°
2026-02-18 14:22 51.33591 7.09661 8746 ft 267 kts 101°
2026-02-18 14:22 51.33290 7.12617 9498 ft 270 kts 101°
2026-02-18 14:22 51.32921 7.15579 10149 ft 273 kts 109°
2026-02-18 14:23 51.32126 7.18351 10712 ft 278 kts 124°
2026-02-18 14:23 51.30868 7.20733 11223 ft 287 kts 135°
2026-02-18 14:23 51.29393 7.23057 11364 ft 310 kts 136°
2026-02-18 14:23 51.27807 7.25552 11538 ft 329 kts 135°
2026-02-18 14:24 51.26157 7.28147 12050 ft 336 kts 136°
2026-02-18 14:24 51.25047 7.29894 12447 ft 340 kts 136°
2026-02-18 14:24 51.23350 7.32570 13036 ft 345 kts 137°
2026-02-18 14:24 51.21634 7.35280 13620 ft 350 kts 136°
2026-02-18 14:25 51.18108 7.40837 14591 ft 361 kts 137°
2026-02-18 14:25 51.16897 7.42740 14951 ft 364 kts 137°
2026-02-18 14:26 51.08795 7.55215 17016 ft 386 kts 139°
2026-02-18 14:26 51.06838 7.58186 17459 ft 392 kts 139°
2026-02-18 14:27 51.04854 7.61198 17923 ft 397 kts 139°
2026-02-18 14:27 51.02845 7.64247 18355 ft 402 kts 139°
2026-02-18 14:27 51.00811 7.67329 18768 ft 406 kts 139°
2026-02-18 14:27 50.98757 7.70442 19194 ft 410 kts 139°
2026-02-18 14:28 50.96628 7.73481 19626 ft 412 kts 146°
2026-02-18 14:28 50.94257 7.76034 20043 ft 413 kts 152°
2026-02-18 14:28 50.91806 7.78454 20467 ft 417 kts 152°
2026-02-18 14:28 50.89329 7.80890 20878 ft 421 kts 152°
2026-02-18 14:29 50.84315 7.85806 21712 ft 428 kts 153°
2026-02-18 14:29 50.81767 7.88303 22119 ft 432 kts 153°
2026-02-18 14:29 50.79200 7.90811 22528 ft 436 kts 153°
2026-02-18 14:30 50.76612 7.93340 22929 ft 439 kts 153°
2026-02-18 14:30 50.74010 7.95887 23313 ft 443 kts 153°
2026-02-18 14:30 50.71382 7.98461 23665 ft 446 kts 153°
2026-02-18 14:30 50.68736 8.01046 24007 ft 449 kts 153°
2026-02-18 14:31 50.66072 8.03638 24326 ft 451 kts 153°
2026-02-18 14:31 50.63392 8.06246 24639 ft 454 kts 153°
2026-02-18 14:31 50.60728 8.08874 25016 ft 458 kts 150°
2026-02-18 14:31 50.58188 8.11974 25268 ft 465 kts 144°
2026-02-18 14:32 50.55693 8.15244 25549 ft 468 kts 144°
2026-02-18 14:32 50.53185 8.18537 25832 ft 471 kts 144°
2026-02-18 14:32 50.50670 8.21836 26145 ft 473 kts 145°
2026-02-18 14:32 50.48130 8.25161 26417 ft 475 kts 145°
2026-02-18 14:33 50.43027 8.31832 26984 ft 480 kts 145°
2026-02-18 14:33 50.40448 8.35191 27278 ft 482 kts 145°
2026-02-18 14:33 50.37861 8.38552 27500 ft 486 kts 145°
2026-02-18 14:34 50.35251 8.41939 27752 ft 488 kts 145°
2026-02-18 14:34 50.32630 8.45334 27988 ft 490 kts 146°
2026-02-18 14:34 50.29999 8.48735 28261 ft 491 kts 146°
2026-02-18 14:34 50.27360 8.52148 28500 ft 493 kts 146°
2026-02-18 14:35 50.24710 8.55574 28753 ft 495 kts 146°
2026-02-18 14:35 50.22055 8.59000 28984 ft 497 kts 146°
2026-02-18 14:35 50.19382 8.62440 29203 ft 499 kts 146°
2026-02-18 14:35 50.16700 8.65894 29427 ft 501 kts 146°
2026-02-18 14:36 50.14006 8.69356 29653 ft 503 kts 146°
2026-02-18 14:36 50.11298 8.72822 29866 ft 504 kts 146°
2026-02-18 14:36 50.08620 8.76386 30025 ft 510 kts 141°
2026-02-18 14:36 50.06221 8.80482 30217 ft 516 kts 131°
2026-02-18 14:37 50.02542 8.90129 30671 ft 522 kts 117°
2026-02-18 14:37 50.00968 8.95220 30880 ft 523 kts 117°
2026-02-18 14:37 49.99403 9.00241 31085 ft 523 kts 117°
2026-02-18 14:38 49.97788 9.05398 31298 ft 524 kts 118°
2026-02-18 14:38 49.96209 9.10419 31504 ft 524 kts 118°
2026-02-18 14:38 49.94604 9.15515 31710 ft 526 kts 117°
2026-02-18 14:38 49.92996 9.20617 31878 ft 528 kts 117°
2026-02-18 14:39 49.91383 9.25738 32082 ft 529 kts 117°
2026-02-18 14:39 49.89765 9.30870 32277 ft 530 kts 117°
2026-02-18 14:39 49.88144 9.36005 32494 ft 530 kts 117°
2026-02-18 14:39 49.86516 9.41139 32716 ft 531 kts 117°
2026-02-18 14:40 49.84884 9.46274 32901 ft 531 kts 117°
2026-02-18 14:40 49.83105 9.51268 33100 ft 530 kts 126°
2026-02-18 14:40 49.80937 9.55861 33300 ft 527 kts 135°
2026-02-18 14:40 49.78423 9.59953 33414 ft 523 kts 142°
2026-02-18 14:41 49.73090 9.67627 33807 ft 524 kts 142°
2026-02-18 14:41 49.70425 9.71479 33989 ft 525 kts 142°
2026-02-18 14:41 49.67762 9.75337 34174 ft 525 kts 142°
2026-02-18 14:42 49.65103 9.79192 34389 ft 524 kts 142°
2026-02-18 14:42 49.62447 9.83035 34587 ft 523 kts 142°
2026-02-18 14:42 49.59791 9.86863 34785 ft 522 kts 142°
2026-02-18 14:43 49.54488 9.94471 34900 ft 520 kts 142°
2026-02-18 14:43 49.49191 10.02035 34890 ft 519 kts 142°
2026-02-18 14:44 49.43896 10.09567 34893 ft 519 kts 142°
2026-02-18 14:44 49.38594 10.17112 34896 ft 519 kts 142°
2026-02-18 14:45 49.30652 10.28383 34939 ft 519 kts 142°
2026-02-18 14:45 49.25334 10.35863 34900 ft 518 kts 144°
2026-02-18 14:46 49.19503 10.42076 34924 ft 507 kts 156°
2026-02-18 14:46 49.13432 10.47591 34923 ft 508 kts 156°
2026-02-18 14:47 49.07365 10.53110 34943 ft 508 kts 156°
2026-02-18 14:47 49.01330 10.58582 34929 ft 507 kts 157°
2026-02-18 14:48 48.95248 10.64063 34955 ft 508 kts 156°
2026-02-18 14:48 48.89158 10.69538 34936 ft 509 kts 156°
2026-02-18 14:49 48.80272 10.78483 34929 ft 520 kts 142°
2026-02-18 14:50 48.75313 10.86555 34927 ft 525 kts 135°
2026-02-18 14:50 48.70430 10.94746 34949 ft 525 kts 136°
2026-02-18 14:51 48.65519 11.02921 34934 ft 525 kts 136°
2026-02-18 14:51 48.60603 11.11081 34930 ft 525 kts 136°
2026-02-18 14:52 48.55694 11.19251 34931 ft 525 kts 135°
2026-02-18 14:52 48.50777 11.27408 34880 ft 525 kts 136°
2026-02-18 14:53 48.43371 11.39594 34920 ft 526 kts 135°
2026-02-18 14:53 48.38424 11.47709 34919 ft 526 kts 136°
2026-02-18 14:54 48.33471 11.55813 34932 ft 527 kts 136°
2026-02-18 14:54 48.28509 11.63916 34936 ft 527 kts 136°
2026-02-18 14:55 48.23439 11.71850 34956 ft 526 kts 140°
2026-02-18 14:55 48.18052 11.79245 34937 ft 525 kts 143°
2026-02-18 14:56 48.12559 11.86426 34930 ft 525 kts 143°
2026-02-18 14:56 48.07115 11.93728 34932 ft 526 kts 141°
2026-02-18 14:57 47.99066 12.04807 34910 ft 527 kts 141°
2026-02-18 14:58 47.93658 12.12189 34917 ft 527 kts 141°
2026-02-18 14:58 47.88222 12.19520 34923 ft 527 kts 141°
2026-02-18 14:59 47.82783 12.26834 34920 ft 527 kts 141°
2026-02-18 14:59 47.77346 12.34154 34925 ft 527 kts 141°
2026-02-18 15:00 47.71911 12.41461 34907 ft 526 kts 142°
2026-02-18 15:00 47.66485 12.48720 34912 ft 526 kts 142°
2026-02-18 15:01 47.58238 12.59441 34920 ft 524 kts 144°
2026-02-18 15:01 47.52573 12.66202 34931 ft 523 kts 146°
2026-02-18 15:02 47.46868 12.72895 34922 ft 523 kts 146°
2026-02-18 15:02 47.41211 12.79657 34937 ft 523 kts 145°
2026-02-18 15:03 47.32780 12.89839 34936 ft 522 kts 145°
2026-02-18 15:04 47.27148 12.96587 34897 ft 522 kts 145°
2026-02-18 15:04 47.21511 13.03288 34926 ft 521 kts 145°
2026-02-18 15:05 47.13054 13.13304 34937 ft 520 kts 145°
2026-02-18 15:05 47.07448 13.19934 34943 ft 520 kts 145°
2026-02-18 15:06 47.01813 13.26582 34911 ft 519 kts 146°
2026-02-18 15:06 46.96187 13.33188 34931 ft 518 kts 146°
2026-02-18 15:07 46.90558 13.39789 34933 ft 518 kts 146°
2026-02-18 15:07 46.84933 13.46378 34940 ft 518 kts 146°
2026-02-18 15:08 46.79302 13.52945 34944 ft 518 kts 146°
2026-02-18 15:08 46.74614 13.58394 34935 ft 518 kts 146°
2026-02-18 15:09 46.66150 13.68211 34931 ft 519 kts 146°
2026-02-18 15:10 46.60486 13.74747 34933 ft 519 kts 146°
2026-02-18 15:10 46.54830 13.81270 34930 ft 519 kts 146°
2026-02-18 15:11 46.49172 13.87780 34921 ft 519 kts 146°
2026-02-18 15:11 46.43509 13.94278 34923 ft 519 kts 146°
2026-02-18 15:12 46.37833 14.00749 34920 ft 519 kts 146°